This demonstration page uses our WeatherBlox Daily Observations layout. Learn more.

Left ArrowRight Arrow

34.16533, -84.80231

Hourly Observations for August 13, 2019

Temp ( °F °C ) Dew Point ( °F °C ) Humidity (%) Winds ( mph kmh ) Pressure ( in mb ) Visibility ( mi km ) Precip ( " mm )
12:53 am 00:53 Clear 82 27.8 74 23.3 77 77 SSE 5 7 29.90 1012 10 16 0.00 0.00
1:53 am 01:53 Clear 80 26.7 74 23.3 82 82 Calm 29.88 1012 10 16 0.00 0.00
2:53 am 02:53 Mostly Cloudy 79 26.1 74 23.3 85 85 Calm 29.90 1012 10 16 0.00 0.00
3:53 am 03:53 Clear 78 25.6 74 23.3 87 87 Calm 29.88 1012 10 16 0.00 0.00
4:53 am 04:53 Mostly Clear 78 25.6 74 23.3 87 87 Calm 29.88 1012 9 14 0.00 0.00
5:53 am 05:53 Mostly Cloudy 77 25 74 23.3 90 90 Calm 29.89 1012 9 14 0.00 0.00
6:53 am 06:53 Clear 76 24.4 73 22.8 91 91 Calm 29.89 1012 7 11 0.00 0.00
7:53 am 07:53 Sunny 78 25.6 74 23.3 87 87 Calm 29.91 1013 7 11 0.00 0.00
8:53 am 08:53 Sunny 83 28.3 76 24.4 79 79 Calm 29.90 1013 10 16 0.00 0.00
9:53 am 09:53 Sunny 86 30 76 24.4 72 72 Calm 29.92 1013 10 16 0.00 0.00
10:53 am 10:53 Sunny 90 32.2 75 23.9 62 62 VRB 5 7 29.92 1013 10 16 0.00 0.00
11:53 am 11:53 Mostly Sunny 92 33.3 75 23.9 58 58 undefined N/A 29.91 1013 10 16 0.00 0.00
12:53 pm 12:53 Sunny 96 35.6 76 24.4 52 52 VRB 5 7 29.89 1012 10 16 0.00 0.00
1:53 pm 13:53 Mostly Sunny 96 35.6 74 23.3 49 49 VRB 5 7 29.87 1011 10 16 0.00 0.00
2:53 pm 14:53 Mostly Sunny 97 36.1 72 22.2 45 45 VRB 5 7 29.84 1011 10 16 0.00 0.00
3:53 pm 15:53 Sunny 98 36.7 73 22.8 45 45 VRB 3 6 29.83 1010 10 16 0.00 0.00
4:53 pm 16:53 Sunny 99 37.2 72 22.2 42 42 S 5 7 29.81 1010 10 16 0.00 0.00
5:53 pm 17:53 Sunny 98 36.7 71 21.7 42 42 S 5 7 29.79 1009 10 16 0.00 0.00
6:53 pm 18:53 Sunny 97 36.1 72 22.2 45 45 S 6 9 29.80 1009 10 16 0.00 0.00
7:53 pm 19:53 Sunny 93 33.9 73 22.8 52 52 Calm 29.81 1009 10 16 0.00 0.00
8:53 pm 20:53 Clear 89 31.7 74 23.3 61 61 Calm 29.81 1010 10 16 0.00 0.00
9:53 pm 21:53 Mostly Clear 86 30 75 23.9 70 70 Calm 29.83 1010 10 16 0.00 0.00
10:51 pm 22:51 Cloudy with Thunderstorms 79 26 72 22 79 79 Calm 29.92 1013 6 10 0.02 0.51
10:53 pm 22:53 Cloudy with Thunderstorms 78 25.6 72 22.2 82 82 VRB 3 6 29.91 1013 5 8 0.03 0.76
11:01 pm 23:01 Cloudy with Light Rain 76 24.4 73 22.8 91 91 Calm 29.93 1014 7 11 0.00 0.00
11:08 pm 23:08 Cloudy with Thunderstorms 76 24.4 73 22.8 91 91 VRB 5 7 29.96 1015 10 16 0.00 0.00
11:34 pm 23:34 Cloudy with Nearby Thunderstorms 76 24.4 72 22.2 88 88 Calm 29.94 1014 10 16 0.01 0.25
11:46 pm 23:46 Mostly Cloudy with Thunderstorms 76 24.4 72 22.2 88 88 Calm 29.93 1014 10 16 0.01 0.25
11:53 pm 23:53 Partly Cloudy with Thunderstorms 77 25 72 22.2 85 85 Calm 29.92 1013 10 16 0.01 0.25

Powered by AerisWeather